Home > Weather > Mesquite > Past weeks

Flag for USA Weather for the Past 2 Weeks in Mesquite, Texas, USA

Now
64 °F

Clear.


Feels Like: 64 °F
Forecast: 51 / 79 °F
Wind: No wind

Location: Mesquite Metro Airport

Current Time: May 3, 2016 at 9:43:58 PM

Latest Report: May 3, 2016 at 9:15 PM


Visibility: 10 mi

Pressure: 30.06 "Hg

Humidity: 52%

Dew Point: 46 °F

Location of MesquiteLocation

Historic Weather in Mesquite — Graph

°F

Mesquite Temperature Yesterday

Maximum temperature yesterday: 63 °F (at 12:21 AM)
Minimum temperature yesterday: 53 °F (at 11:35 PM)
Average temperature yesterday: 59 °F

High & Low Weather Summary for the Past Weeks

 TemperatureHumidityPressure
High84 °F (Apr 27, 3:50 PM)100% (Apr 19, 8:50 AM)30.15 "Hg (Apr 19, 8:50 AM)
Low48 °F (May 3, 6:50 AM)26% (Apr 27, 2:50 PM)29.56 "Hg (Apr 29, 5:50 PM)
Average67 °F78%29.90 "Hg
* Reported Apr 18 8:15 PM — May 3 8:15 PM, Mesquite, Weather by CustomWeather, © 2016

Note: Actual official high and low records may vary slightly from our data, if they occured in-between our weather recording intervals... More about our weather records

Advertising

Mesquite Weather History for the Previous 24 Hours

Scroll right to see more
 ConditionsComfort  
Time TempWeatherWind HumidityBarometerVisibility
8:15 PM
Tue, May 3
65 °FSunny.No wind56%30.05 "Hg10 mi
7:50 PM66 °FSunny.No wind49%30.04 "Hg10 mi
6:50 PM70 °FSunny.7 mph40%30.03 "Hg10 mi
5:50 PM72 °FSunny.5 mph38%30.02 "Hg10 mi
3:50 PM72 °FSunny.No wind38%30.05 "Hg10 mi
2:50 PM70 °FSunny.8 mph40%30.07 "Hg10 mi
1:50 PM68 °FSunny.7 mph43%30.09 "Hg10 mi
12:50 PM66 °FSunny.8 mph43%30.12 "Hg10 mi
11:50 AM64 °FSunny.6 mph46%30.14 "Hg10 mi
10:50 AM64 °FSunny.5 mph52%30.14 "Hg10 mi
9:50 AM63 °FSunny.8 mph56%30.14 "Hg10 mi
8:50 AM59 °FSunny.7 mph72%30.13 "Hg10 mi
7:50 AM54 °FSunny.No wind82%30.12 "Hg10 mi
6:50 AM48 °FClear.5 mph87%30.10 "Hg10 mi
6:15 AM49 °FClear.5 mph85%30.09 "Hg10 mi
5:55 AM49 °FClear.6 mph88%30.08 "Hg10 mi
5:35 AM49 °FClear.6 mph86%30.08 "Hg10 mi
5:15 AM50 °FClear.5 mph82%30.08 "Hg10 mi
4:55 AM51 °FClear.6 mph83%30.08 "Hg10 mi
4:15 AM51 °FClear.6 mph83%30.08 "Hg10 mi
3:55 AM51 °FClear.6 mph85%30.08 "Hg10 mi
3:35 AM49 °FClear.5 mph89%30.08 "Hg10 mi
3:15 AM51 °FClear.5 mph87%30.08 "Hg10 mi
2:55 AM50 °FClear.5 mph91%30.09 "Hg10 mi
2:35 AM50 °FClear.3 mph91%30.09 "Hg10 mi
1:55 AM51 °FClear.No wind89%30.10 "Hg10 mi
1:35 AM52 °FClear.No wind89%30.11 "Hg10 mi
1:15 AM51 °FClear.3 mph91%30.11 "Hg10 mi
12:35 AM51 °FClear.5 mph92%30.11 "Hg10 mi
11:55 PM
Mon, May 2
53 °FClear.No wind86%30.12 "Hg10 mi
11:35 PM53 °FClear.3 mph87%30.12 "Hg10 mi
10:55 PM55 °FClear.No wind82%30.12 "Hg10 mi
10:15 PM55 °FClear.3 mph78%30.12 "Hg10 mi
9:55 PM56 °FClear.7 mph74%30.12 "Hg10 mi
9:35 PM56 °FClear.7 mph76%30.11 "Hg10 mi
9:15 PM57 °FPassing clouds.6 mph72%30.11 "Hg10 mi
Weather by CustomWeather, © 2016

See weather overviewHow to use our weather pages